Year,Month,Day,Hour,Minute,Value (Times are PST for temperature in C)
2020,12,07,00,00,8.70
2020,12,07,00,01,8.70
2020,12,07,00,02,8.70
2020,12,07,00,03,8.70
2020,12,07,00,04,8.70
2020,12,07,00,05,8.70
2020,12,07,00,06,8.70
2020,12,07,00,07,8.70
2020,12,07,00,08,8.70
2020,12,07,00,09,8.70
2020,12,07,00,10,8.70
2020,12,07,00,11,8.70
2020,12,07,00,12,8.70
2020,12,07,00,13,8.70
2020,12,07,00,14,8.70
2020,12,07,00,15,8.70
2020,12,07,00,16,8.60
2020,12,07,00,17,8.60
2020,12,07,00,18,8.70
2020,12,07,00,19,8.70
2020,12,07,00,20,8.70
2020,12,07,00,21,8.70
2020,12,07,00,22,8.70
2020,12,07,00,23,8.70
2020,12,07,00,24,8.70
2020,12,07,00,25,8.70
2020,12,07,00,26,8.70
2020,12,07,00,27,8.70
2020,12,07,00,28,8.70
2020,12,07,00,29,8.70
2020,12,07,00,30,8.70
2020,12,07,00,31,8.70
2020,12,07,00,32,8.70
2020,12,07,00,33,8.70
2020,12,07,00,34,8.60
2020,12,07,00,35,8.60
2020,12,07,00,36,8.60
2020,12,07,00,37,8.60
2020,12,07,00,38,8.60
2020,12,07,00,39,8.60
2020,12,07,00,40,8.60
2020,12,07,00,41,8.60
2020,12,07,00,42,8.60
2020,12,07,00,43,8.60
2020,12,07,00,44,8.60
2020,12,07,00,45,8.60
2020,12,07,00,46,8.60
2020,12,07,00,47,8.60
2020,12,07,00,48,8.60
2020,12,07,00,49,8.60
2020,12,07,00,50,8.60
2020,12,07,00,51,8.60
2020,12,07,00,52,8.60
2020,12,07,00,53,8.60
2020,12,07,00,54,8.60
2020,12,07,00,55,8.60
2020,12,07,00,56,8.60
2020,12,07,00,57,8.60
2020,12,07,00,58,8.60
2020,12,07,00,59,8.60
2020,12,07,01,00,8.60
2020,12,07,01,01,8.60
2020,12,07,01,02,8.60
2020,12,07,01,03,8.60
2020,12,07,01,04,8.60
2020,12,07,01,05,8.60
2020,12,07,01,06,8.60
2020,12,07,01,07,8.60
2020,12,07,01,08,8.60
2020,12,07,01,09,8.60
2020,12,07,01,10,8.60
2020,12,07,01,11,8.60
2020,12,07,01,12,8.60
2020,12,07,01,13,8.60
2020,12,07,01,14,8.60
2020,12,07,01,15,8.60
2020,12,07,01,16,8.60
2020,12,07,01,17,8.60
2020,12,07,01,18,8.60
2020,12,07,01,19,8.50
2020,12,07,01,20,8.50
2020,12,07,01,21,8.50
2020,12,07,01,22,8.50
2020,12,07,01,23,8.50
2020,12,07,01,24,8.50
2020,12,07,01,25,8.50
2020,12,07,01,26,8.50
2020,12,07,01,27,8.50
2020,12,07,01,28,8.50
2020,12,07,01,29,8.60
2020,12,07,01,30,8.60
2020,12,07,01,31,8.60
2020,12,07,01,32,8.60
2020,12,07,01,33,8.60
2020,12,07,01,34,8.60
2020,12,07,01,35,8.60
2020,12,07,01,36,8.60
2020,12,07,01,37,8.60
2020,12,07,01,38,8.60
2020,12,07,01,39,8.60
2020,12,07,01,40,8.60
2020,12,07,01,41,8.60
2020,12,07,01,42,8.60
2020,12,07,01,43,8.60
2020,12,07,01,44,8.60
2020,12,07,01,45,8.60
2020,12,07,01,46,8.60
2020,12,07,01,47,8.60
2020,12,07,01,48,8.60
2020,12,07,01,49,8.60
2020,12,07,01,50,8.60
2020,12,07,01,51,8.60
2020,12,07,01,52,8.60
2020,12,07,01,53,8.60
2020,12,07,01,54,8.60
2020,12,07,01,55,8.60
2020,12,07,01,56,8.60
2020,12,07,01,57,8.60
2020,12,07,01,58,8.60
2020,12,07,01,59,8.60
2020,12,07,02,00,8.60
2020,12,07,02,01,8.50
2020,12,07,02,02,8.50
2020,12,07,02,03,8.50
2020,12,07,02,04,8.50
2020,12,07,02,05,8.50
2020,12,07,02,06,8.50
2020,12,07,02,07,8.50
2020,12,07,02,08,8.40
2020,12,07,02,09,8.50
2020,12,07,02,10,8.50
2020,12,07,02,11,8.40
2020,12,07,02,12,8.40
2020,12,07,02,13,8.40
2020,12,07,02,14,8.40
2020,12,07,02,15,8.40
2020,12,07,02,16,8.40
2020,12,07,02,17,8.40
2020,12,07,02,18,8.40
2020,12,07,02,19,8.40
2020,12,07,02,20,8.40
2020,12,07,02,21,8.40
2020,12,07,02,22,8.40
2020,12,07,02,23,8.40
2020,12,07,02,24,8.40
2020,12,07,02,25,8.40
2020,12,07,02,26,8.40
2020,12,07,02,27,8.40
2020,12,07,02,28,8.40
2020,12,07,02,29,8.40
2020,12,07,02,30,8.40
2020,12,07,02,31,8.40
2020,12,07,02,32,8.40
2020,12,07,02,33,8.40
2020,12,07,02,34,8.40
2020,12,07,02,35,8.40
2020,12,07,02,36,8.40
2020,12,07,02,37,8.40
2020,12,07,02,38,8.40
2020,12,07,02,39,8.40
2020,12,07,02,40,8.40
2020,12,07,02,41,8.40
2020,12,07,02,42,8.40
2020,12,07,02,43,8.40
2020,12,07,02,44,8.40
2020,12,07,02,45,8.40
2020,12,07,02,46,8.40
2020,12,07,02,47,8.30
2020,12,07,02,48,8.30
2020,12,07,02,49,8.30
2020,12,07,02,50,8.30
2020,12,07,02,51,8.30
2020,12,07,02,52,8.30
2020,12,07,02,53,8.30
2020,12,07,02,54,8.30
2020,12,07,02,55,8.30
2020,12,07,02,56,8.30
2020,12,07,02,57,8.30
2020,12,07,02,58,8.30
2020,12,07,02,59,8.20
2020,12,07,03,00,8.20
2020,12,07,03,01,8.20
2020,12,07,03,02,8.20
2020,12,07,03,03,8.20
2020,12,07,03,04,8.20
2020,12,07,03,05,8.20
2020,12,07,03,06,8.20
2020,12,07,03,07,8.20
2020,12,07,03,08,8.20
2020,12,07,03,09,8.20
2020,12,07,03,10,8.20
2020,12,07,03,11,8.20
2020,12,07,03,12,8.20
2020,12,07,03,13,8.20
2020,12,07,10,01,8.10
2020,12,07,10,02,8.10
2020,12,07,10,03,8.10
2020,12,07,10,04,8.10
2020,12,07,10,05,8.10
2020,12,07,10,06,8.10
2020,12,07,10,07,8.10
2020,12,07,10,08,8.10
2020,12,07,10,09,8.10
2020,12,07,10,10,8.10
2020,12,07,10,11,8.10
2020,12,07,10,12,8.10
2020,12,07,10,13,8.10
2020,12,07,10,14,8.10
2020,12,07,10,15,8.10
2020,12,07,10,16,8.10
2020,12,07,10,17,8.10
2020,12,07,10,18,8.20
2020,12,07,10,19,8.20
2020,12,07,10,20,8.10
2020,12,07,10,21,8.20
2020,12,07,10,22,8.10
2020,12,07,10,23,8.10
2020,12,07,10,24,8.10
2020,12,07,10,25,8.10
2020,12,07,10,26,8.10
2020,12,07,10,27,8.10
2020,12,07,10,28,8.10
2020,12,07,10,29,8.10
2020,12,07,10,30,8.10
2020,12,07,10,31,8.10
2020,12,07,10,32,8.10
2020,12,07,10,33,8.10
2020,12,07,10,34,8.10
2020,12,07,10,35,8.10
2020,12,07,10,36,8.10
2020,12,07,10,37,8.10
2020,12,07,10,38,8.10
2020,12,07,10,39,8.00
2020,12,07,10,40,8.00
2020,12,07,10,41,8.00
2020,12,07,10,42,8.00
2020,12,07,10,43,8.00
2020,12,07,10,44,8.00
2020,12,07,10,45,7.90
2020,12,07,10,46,7.90
2020,12,07,10,47,7.90
2020,12,07,10,48,7.90
2020,12,07,10,49,7.90
2020,12,07,10,50,7.90
2020,12,07,10,51,7.90
2020,12,07,10,52,7.90
2020,12,07,10,53,7.90
2020,12,07,10,54,7.90
2020,12,07,10,55,7.90
2020,12,07,10,56,7.90
2020,12,07,10,57,7.90
2020,12,07,10,58,7.90
2020,12,07,10,59,7.90
2020,12,07,11,00,7.90
2020,12,07,11,01,7.90
2020,12,07,11,02,7.90
2020,12,07,11,03,7.90
2020,12,07,11,04,7.90
2020,12,07,11,05,7.90
2020,12,07,11,06,7.90
2020,12,07,11,07,8.00
2020,12,07,11,08,8.00
2020,12,07,11,09,8.00
2020,12,07,11,10,8.00
2020,12,07,11,11,8.00
2020,12,07,11,12,8.00
2020,12,07,11,13,8.00
2020,12,07,11,14,8.10
2020,12,07,11,15,8.10
2020,12,07,11,16,8.10
2020,12,07,11,17,8.10
2020,12,07,11,18,8.10
2020,12,07,11,19,8.10
2020,12,07,11,20,8.10
2020,12,07,11,21,8.10
2020,12,07,11,22,8.10
2020,12,07,11,23,8.10
2020,12,07,11,24,8.10
2020,12,07,11,25,8.10
2020,12,07,11,26,8.10
2020,12,07,11,27,8.00
2020,12,07,11,28,8.00
2020,12,07,11,29,8.00
2020,12,07,11,30,8.10
2020,12,07,11,31,8.10
2020,12,07,11,32,8.10
2020,12,07,11,33,8.10
2020,12,07,11,34,8.10
2020,12,07,11,35,8.10
2020,12,07,11,36,8.00
2020,12,07,11,37,8.00
2020,12,07,11,38,8.00
2020,12,07,11,39,8.00
2020,12,07,11,40,8.00
2020,12,07,11,41,7.90
2020,12,07,11,42,7.90
2020,12,07,11,43,7.90
2020,12,07,11,44,7.90
2020,12,07,11,45,7.90
2020,12,07,11,46,7.90
2020,12,07,11,47,7.90
2020,12,07,11,48,7.90
2020,12,07,11,49,7.90
2020,12,07,11,50,7.90
2020,12,07,11,51,7.90
2020,12,07,11,52,7.90
2020,12,07,11,53,7.90
2020,12,07,11,54,7.90
2020,12,07,11,55,7.90
2020,12,07,11,56,7.90
2020,12,07,11,57,7.90
2020,12,07,11,58,7.90
2020,12,07,11,59,7.90
2020,12,07,12,00,7.90
2020,12,07,12,01,7.90
2020,12,07,12,02,7.90
2020,12,07,12,03,7.90
2020,12,07,12,04,7.90
2020,12,07,12,05,7.90
2020,12,07,12,06,7.90
2020,12,07,12,07,7.90
2020,12,07,12,08,7.90
2020,12,07,12,09,7.90
2020,12,07,12,10,7.90
2020,12,07,12,11,7.90
2020,12,07,12,12,7.90
2020,12,07,12,13,7.90
2020,12,07,12,14,7.90
2020,12,07,12,15,7.90
2020,12,07,12,16,7.90
2020,12,07,12,17,7.90
2020,12,07,12,18,8.00
2020,12,07,12,19,8.00
2020,12,07,12,20,8.00
2020,12,07,12,21,8.00
2020,12,07,12,22,8.00
2020,12,07,12,23,8.00
2020,12,07,12,24,8.00
2020,12,07,12,25,8.10
2020,12,07,12,26,8.10
2020,12,07,12,27,8.10
2020,12,07,12,28,8.10
2020,12,07,12,29,8.10
2020,12,07,12,30,8.10
2020,12,07,12,31,8.10
2020,12,07,12,32,8.10
2020,12,07,12,33,8.10
2020,12,07,12,34,8.10
2020,12,07,12,35,8.10
2020,12,07,12,36,8.10
2020,12,07,12,37,8.10
2020,12,07,12,38,8.10
2020,12,07,12,39,8.10
2020,12,07,12,40,8.10
2020,12,07,12,41,8.10
2020,12,07,12,42,8.10
2020,12,07,12,43,8.10
2020,12,07,12,44,8.10
2020,12,07,12,45,8.10
2020,12,07,12,46,8.10
2020,12,07,12,47,8.10
2020,12,07,12,48,8.20
2020,12,07,12,49,8.20
2020,12,07,12,50,8.20
2020,12,07,12,51,8.20
2020,12,07,12,52,8.20
2020,12,07,12,53,8.20
2020,12,07,12,54,8.20
2020,12,07,12,55,8.20
2020,12,07,12,56,8.20
2020,12,07,12,57,8.20
2020,12,07,12,58,8.20
2020,12,07,12,59,8.20
2020,12,07,13,00,8.20
2020,12,07,13,01,8.20
2020,12,07,13,02,8.20
2020,12,07,13,03,8.20
2020,12,07,13,04,8.20
2020,12,07,13,05,8.20
2020,12,07,13,06,8.20
2020,12,07,13,07,8.20
2020,12,07,13,08,8.20
2020,12,07,13,09,8.20
2020,12,07,13,10,8.20
2020,12,07,13,11,8.20
2020,12,07,13,12,8.20
2020,12,07,13,13,8.20
2020,12,07,13,14,8.20
2020,12,07,13,15,8.20
2020,12,07,13,16,8.20
2020,12,07,13,17,8.20
2020,12,07,13,18,8.30
2020,12,07,13,19,8.30
2020,12,07,13,20,8.30
2020,12,07,13,21,8.30
2020,12,07,13,22,8.30
2020,12,07,13,23,8.30
2020,12,07,13,24,8.30
2020,12,07,13,25,8.30
2020,12,07,13,26,8.30
2020,12,07,13,27,8.30
2020,12,07,13,28,8.30
2020,12,07,13,29,8.30
2020,12,07,13,30,8.30
2020,12,07,13,31,8.30
2020,12,07,13,32,8.30
2020,12,07,13,33,8.30
2020,12,07,13,34,8.30
2020,12,07,13,35,8.30
2020,12,07,13,36,8.30
2020,12,07,13,37,8.30
2020,12,07,13,38,8.30
2020,12,07,13,39,8.30
2020,12,07,13,40,8.30
2020,12,07,13,41,8.30
2020,12,07,13,42,8.30
2020,12,07,13,43,8.30
2020,12,07,13,44,8.30
2020,12,07,13,45,8.30
2020,12,07,13,46,8.30
2020,12,07,13,47,8.30
2020,12,07,13,48,8.30
2020,12,07,13,49,8.30
2020,12,07,13,50,8.30
2020,12,07,13,51,8.30
2020,12,07,13,52,8.30
2020,12,07,13,53,8.30
2020,12,07,13,54,8.30
2020,12,07,13,55,8.40
2020,12,07,13,56,8.40
2020,12,07,13,57,8.40
2020,12,07,13,58,8.40
2020,12,07,13,59,8.40
2020,12,07,14,00,8.40
2020,12,07,14,01,8.40
2020,12,07,14,02,8.40
2020,12,07,14,03,8.40
2020,12,07,14,04,8.40
2020,12,07,14,05,8.40
2020,12,07,14,06,8.40
2020,12,07,14,07,8.40
2020,12,07,14,08,8.40
2020,12,07,14,09,8.40
2020,12,07,14,10,8.40
2020,12,07,14,11,8.40
2020,12,07,14,12,8.40
2020,12,07,14,13,8.40
2020,12,07,14,14,8.40
2020,12,07,14,15,8.40
2020,12,07,14,16,8.40
2020,12,07,14,17,8.40
2020,12,07,14,18,8.40
2020,12,07,14,19,8.40
2020,12,07,14,20,8.40
2020,12,07,14,21,8.40
2020,12,07,14,22,8.40
2020,12,07,14,23,8.40
2020,12,07,14,24,8.40
2020,12,07,14,25,8.40
2020,12,07,14,26,8.40
2020,12,07,14,27,8.40
2020,12,07,14,28,8.40
2020,12,07,14,29,8.40
2020,12,07,14,30,8.40
2020,12,07,14,31,8.40
2020,12,07,14,32,8.40
2020,12,07,14,33,8.40
2020,12,07,14,34,8.40
2020,12,07,14,35,8.40
2020,12,07,14,36,8.40
2020,12,07,14,37,8.40
2020,12,07,14,38,8.40
2020,12,07,14,39,8.40
2020,12,07,14,40,8.40
2020,12,07,14,41,8.40
2020,12,07,14,42,8.40
2020,12,07,14,43,8.40
2020,12,07,14,44,8.40
2020,12,07,14,45,8.40
2020,12,07,14,46,8.40
2020,12,07,14,47,8.40
2020,12,07,14,48,8.40
2020,12,07,14,49,8.40
2020,12,07,14,50,8.40
2020,12,07,14,51,8.40
2020,12,07,14,52,8.40
2020,12,07,14,53,8.40
2020,12,07,14,54,8.40
2020,12,07,14,55,8.40
2020,12,07,14,56,8.40
2020,12,07,14,57,8.40
2020,12,07,14,58,8.40
2020,12,07,14,59,8.40
2020,12,07,15,00,8.40
2020,12,07,15,01,8.40
2020,12,07,15,02,8.40
2020,12,07,15,03,8.40
2020,12,07,15,04,8.40
2020,12,07,15,05,8.40
2020,12,07,15,06,8.40
2020,12,07,15,07,8.40
2020,12,07,15,08,8.40
2020,12,07,15,09,8.40
2020,12,07,15,10,8.40
2020,12,07,15,11,8.40
2020,12,07,15,12,8.40
2020,12,07,15,13,8.40
2020,12,07,15,14,8.40
2020,12,07,15,15,8.40
2020,12,07,15,16,8.40
2020,12,07,15,17,8.40
2020,12,07,15,18,8.40
2020,12,07,15,19,8.40
2020,12,07,15,20,8.40
2020,12,07,15,21,8.40
2020,12,07,15,22,8.40
2020,12,07,15,23,8.40
2020,12,07,15,24,8.40
2020,12,07,15,25,8.40
2020,12,07,15,26,8.40
2020,12,07,15,27,8.40
2020,12,07,15,28,8.40
2020,12,07,15,29,8.40
2020,12,07,15,30,8.40
2020,12,07,15,31,8.40
2020,12,07,15,32,8.40
2020,12,07,15,33,8.40
2020,12,07,15,34,8.40
2020,12,07,15,35,8.40
2020,12,07,15,36,8.40
2020,12,07,15,37,8.40
2020,12,07,15,38,8.40
2020,12,07,15,39,8.40
2020,12,07,15,40,8.40
2020,12,07,15,41,8.40
2020,12,07,15,42,8.40
2020,12,07,15,43,8.40
2020,12,07,15,44,8.40
2020,12,07,15,45,8.40
2020,12,07,15,46,8.40
2020,12,07,15,47,8.40
2020,12,07,15,48,8.40
2020,12,07,15,49,8.40
2020,12,07,15,50,8.40
2020,12,07,15,51,8.40
2020,12,07,15,52,8.40
2020,12,07,15,53,8.40
2020,12,07,15,54,8.40
2020,12,07,15,55,8.30
2020,12,07,15,56,8.30
2020,12,07,15,57,8.30
2020,12,07,15,58,8.30
2020,12,07,15,59,8.30
2020,12,07,16,00,8.30
2020,12,07,16,01,8.30
2020,12,07,16,02,8.30
2020,12,07,16,03,8.30
2020,12,07,16,04,8.30
2020,12,07,16,05,8.30
2020,12,07,16,06,8.30
2020,12,07,16,07,8.30
2020,12,07,16,08,8.30
2020,12,07,16,09,8.30
2020,12,07,16,10,8.30
2020,12,07,16,11,8.30
2020,12,07,16,12,8.30
2020,12,07,16,13,8.30
2020,12,07,16,14,8.30
2020,12,07,16,15,8.30
2020,12,07,16,16,8.30
2020,12,07,16,17,8.30
2020,12,07,16,18,8.30
2020,12,07,16,19,8.30
2020,12,07,16,20,8.30
2020,12,07,16,21,8.30
2020,12,07,16,22,8.30
2020,12,07,16,23,8.30
2020,12,07,16,24,8.30
2020,12,07,16,25,8.30
2020,12,07,16,26,8.30
2020,12,07,16,27,8.30
2020,12,07,16,28,8.30
2020,12,07,16,29,8.30
2020,12,07,16,30,8.30
2020,12,07,16,31,8.30
2020,12,07,16,32,8.30
2020,12,07,16,33,8.30
2020,12,07,16,34,8.30
2020,12,07,16,35,8.30
2020,12,07,16,36,8.30
2020,12,07,16,37,8.30
2020,12,07,16,38,8.30
2020,12,07,16,39,8.30
2020,12,07,16,40,8.30
2020,12,07,16,41,8.30
2020,12,07,16,42,8.30
2020,12,07,16,43,8.30
2020,12,07,16,44,8.30
2020,12,07,16,45,8.30
2020,12,07,16,46,8.30
2020,12,07,16,47,8.30
2020,12,07,16,48,8.30
2020,12,07,16,49,8.30
2020,12,07,16,50,8.30
2020,12,07,16,51,8.30
2020,12,07,16,52,8.30
2020,12,07,16,53,8.30
2020,12,07,16,54,8.30
2020,12,07,16,55,8.30
2020,12,07,16,56,8.30
2020,12,07,16,57,8.30
2020,12,07,16,58,8.30
2020,12,07,16,59,8.30
2020,12,07,17,00,8.30
2020,12,07,17,01,8.30
2020,12,07,17,02,8.30
2020,12,07,17,03,8.30
2020,12,07,17,04,8.30
2020,12,07,17,05,8.30
2020,12,07,17,06,8.30
2020,12,07,17,07,8.30
2020,12,07,17,08,8.30
2020,12,07,17,09,8.30
2020,12,07,17,10,8.30
2020,12,07,17,11,8.30
2020,12,07,17,12,8.30
2020,12,07,17,13,8.30
2020,12,07,17,14,8.30
2020,12,07,17,15,8.30
2020,12,07,17,16,8.30
2020,12,07,17,17,8.30
2020,12,07,17,18,8.30
2020,12,07,17,19,8.30
2020,12,07,17,20,8.30
2020,12,07,17,21,8.30
2020,12,07,17,22,8.30
2020,12,07,17,23,8.30
2020,12,07,17,24,8.30
2020,12,07,17,25,8.30
2020,12,07,17,26,8.30
2020,12,07,17,27,8.30
2020,12,07,17,28,8.30
2020,12,07,17,29,8.30
2020,12,07,17,30,8.30
2020,12,07,17,31,8.30
2020,12,07,17,32,8.30
2020,12,07,17,33,8.30
2020,12,07,17,34,8.30
2020,12,07,17,35,8.30
2020,12,07,17,36,8.30
2020,12,07,17,37,8.30
2020,12,07,17,38,8.30
2020,12,07,17,39,8.30
2020,12,07,17,40,8.30
2020,12,07,17,41,8.30
2020,12,07,17,42,8.30
2020,12,07,17,43,8.30
2020,12,07,17,44,8.30
2020,12,07,17,45,8.30
2020,12,07,17,46,8.30
2020,12,07,17,47,8.30
2020,12,07,17,48,8.30
2020,12,07,17,49,8.30
2020,12,07,17,50,8.30
2020,12,07,17,51,8.30
2020,12,07,17,52,8.30
2020,12,07,17,53,8.20
2020,12,07,17,54,8.30
2020,12,07,17,55,8.30
2020,12,07,17,56,8.20
2020,12,07,17,57,8.30
2020,12,07,17,58,8.30
2020,12,07,17,59,8.30
2020,12,07,18,00,8.20
2020,12,07,18,01,8.20
2020,12,07,18,02,8.20
2020,12,07,18,03,8.20
2020,12,07,18,04,8.20
2020,12,07,18,05,8.20
2020,12,07,18,06,8.20
2020,12,07,18,07,8.20
2020,12,07,18,08,8.20
2020,12,07,18,09,8.20
2020,12,07,18,10,8.20
2020,12,07,18,11,8.20
2020,12,07,18,12,8.20
2020,12,07,18,13,8.20
2020,12,07,18,14,8.20
2020,12,07,18,15,8.20
2020,12,07,18,16,8.20
2020,12,07,18,17,8.20
2020,12,07,18,18,8.20
2020,12,07,18,19,8.20
2020,12,07,18,20,8.20
2020,12,07,18,21,8.20
2020,12,07,18,22,8.20
2020,12,07,18,23,8.20
2020,12,07,18,24,8.20
2020,12,07,18,25,8.20
2020,12,07,18,26,8.20
2020,12,07,18,27,8.20
2020,12,07,18,28,8.20
2020,12,07,18,29,8.20
2020,12,07,18,30,8.20
2020,12,07,18,31,8.20
2020,12,07,18,32,8.20
2020,12,07,18,33,8.20
2020,12,07,18,34,8.20
2020,12,07,18,35,8.20
2020,12,07,18,36,8.20
2020,12,07,18,37,8.30
2020,12,07,18,38,8.20
2020,12,07,18,39,8.20
2020,12,07,18,40,8.20
2020,12,07,18,41,8.20
2020,12,07,18,42,8.20
2020,12,07,18,43,8.20
2020,12,07,18,44,8.20
2020,12,07,18,45,8.30
2020,12,07,18,46,8.30
2020,12,07,18,47,8.30
2020,12,07,18,48,8.30
2020,12,07,18,49,8.30
2020,12,07,18,50,8.30
2020,12,07,18,51,8.30
2020,12,07,18,52,8.30
2020,12,07,18,53,8.30
2020,12,07,18,54,8.30
2020,12,07,18,55,8.30
2020,12,07,18,56,8.30
2020,12,07,18,57,8.30
2020,12,07,18,58,8.30
2020,12,07,18,59,8.30
2020,12,07,19,00,8.30
2020,12,07,19,01,8.30
2020,12,07,19,02,8.30
2020,12,07,19,03,8.30
2020,12,07,19,04,8.30
2020,12,07,19,05,8.30
2020,12,07,19,06,8.30
2020,12,07,19,07,8.30
2020,12,07,19,08,8.30
2020,12,07,19,09,8.30
2020,12,07,19,10,8.30
2020,12,07,19,11,8.30
2020,12,07,19,12,8.30
2020,12,07,19,13,8.30
2020,12,07,19,14,8.30
2020,12,07,19,15,8.30
2020,12,07,19,16,8.30
2020,12,07,19,17,8.30
2020,12,07,19,18,8.30
2020,12,07,19,19,8.30
2020,12,07,19,20,8.30
2020,12,07,19,21,8.30
2020,12,07,19,22,8.30
2020,12,07,19,23,8.30
2020,12,07,19,24,8.30
2020,12,07,19,25,8.30
2020,12,07,19,26,8.30
2020,12,07,19,27,8.30
2020,12,07,19,28,8.30
2020,12,07,19,29,8.30
2020,12,07,19,30,8.30
2020,12,07,19,31,8.30
2020,12,07,19,32,8.30
2020,12,07,19,33,8.30
2020,12,07,19,34,8.30
2020,12,07,19,35,8.30
2020,12,07,19,36,8.30
2020,12,07,19,37,8.30
2020,12,07,19,38,8.30
2020,12,07,19,39,8.30
2020,12,07,19,40,8.30
2020,12,07,19,41,8.30
2020,12,07,19,42,8.30
2020,12,07,19,43,8.30
2020,12,07,19,44,8.30
2020,12,07,19,45,8.30
2020,12,07,19,46,8.30
2020,12,07,19,47,8.30
2020,12,07,19,48,8.30
2020,12,07,19,49,8.30
2020,12,07,19,50,8.30
2020,12,07,19,51,8.30
2020,12,07,19,52,8.30
2020,12,07,19,53,8.30
2020,12,07,19,54,8.30
2020,12,07,19,55,8.30
2020,12,07,19,56,8.30
2020,12,07,19,57,8.30
2020,12,07,19,58,8.30
2020,12,07,19,59,8.30
2020,12,07,20,00,8.30
2020,12,07,20,01,8.30
2020,12,07,20,02,8.30
2020,12,07,20,03,8.30
2020,12,07,20,04,8.30
2020,12,07,20,05,8.30
2020,12,07,20,06,8.30
2020,12,07,20,07,8.30
2020,12,07,20,08,8.30
2020,12,07,20,09,8.30
2020,12,07,20,10,8.30
2020,12,07,20,11,8.30
2020,12,07,20,12,8.30
2020,12,07,20,13,8.30
2020,12,07,20,14,8.30
2020,12,07,20,15,8.30
2020,12,07,20,16,8.30
2020,12,07,20,17,8.30
2020,12,07,20,18,8.30
2020,12,07,20,19,8.30
2020,12,07,20,20,8.30
2020,12,07,20,21,8.30
2020,12,07,20,22,8.30
2020,12,07,20,23,8.30
2020,12,07,20,24,8.30
2020,12,07,20,25,8.30
2020,12,07,20,26,8.30
2020,12,07,20,27,8.30
2020,12,07,20,28,8.30
2020,12,07,20,29,8.30
2020,12,07,20,30,8.30
2020,12,07,20,31,8.40
2020,12,07,20,32,8.30
2020,12,07,20,33,8.40
2020,12,07,20,34,8.40
2020,12,07,20,35,8.40
2020,12,07,20,36,8.40
2020,12,07,20,37,8.40
2020,12,07,20,38,8.40
2020,12,07,20,39,8.40
2020,12,07,20,40,8.40
2020,12,07,20,41,8.40
2020,12,07,20,42,8.40
2020,12,07,20,43,8.40
2020,12,07,20,44,8.40
2020,12,07,20,45,8.40
2020,12,07,20,46,8.40
2020,12,07,20,47,8.40
2020,12,07,20,48,8.40
2020,12,07,20,49,8.40
2020,12,07,20,50,8.40
2020,12,07,20,51,8.40
2020,12,07,20,52,8.40
2020,12,07,20,53,8.40
2020,12,07,20,54,8.40
2020,12,07,20,55,8.40
2020,12,07,20,56,8.40
2020,12,07,20,57,8.40
2020,12,07,20,58,8.40
2020,12,07,20,59,8.40
2020,12,07,21,00,8.40
2020,12,07,21,01,8.40
2020,12,07,21,02,8.40
2020,12,07,21,03,8.40
2020,12,07,21,04,8.40
2020,12,07,21,05,8.40
2020,12,07,21,06,8.40
2020,12,07,21,07,8.40
2020,12,07,21,08,8.40
2020,12,07,21,09,8.40
2020,12,07,21,10,8.40
2020,12,07,21,11,8.40
2020,12,07,21,12,8.40
2020,12,07,21,13,8.40
2020,12,07,21,14,8.40
2020,12,07,21,15,8.40
2020,12,07,21,16,8.40
2020,12,07,21,17,8.40
2020,12,07,21,18,8.40
2020,12,07,21,19,8.40
2020,12,07,21,20,8.40
2020,12,07,21,21,8.40
2020,12,07,21,22,8.40
2020,12,07,21,23,8.40
2020,12,07,21,24,8.40
2020,12,07,21,25,8.40
2020,12,07,21,26,8.40
2020,12,07,21,27,8.40
2020,12,07,21,28,8.50
2020,12,07,21,29,8.50
2020,12,07,21,30,8.50
2020,12,07,21,31,8.50
2020,12,07,21,32,8.50
2020,12,07,21,33,8.50
2020,12,07,21,34,8.50
2020,12,07,21,35,8.50
2020,12,07,21,36,8.50
2020,12,07,21,37,8.50
2020,12,07,21,38,8.40
2020,12,07,21,39,8.50
2020,12,07,21,40,8.40
2020,12,07,21,41,8.40
2020,12,07,21,42,8.40
2020,12,07,21,43,8.50
2020,12,07,21,44,8.50
2020,12,07,21,45,8.50
2020,12,07,21,46,8.50
2020,12,07,21,47,8.50
2020,12,07,21,48,8.50
2020,12,07,21,49,8.50
2020,12,07,21,50,8.50
2020,12,07,21,51,8.50
2020,12,07,21,52,8.50
2020,12,07,21,53,8.50
2020,12,07,21,54,8.50
2020,12,07,21,55,8.50
2020,12,07,21,56,8.50
2020,12,07,21,57,8.50
2020,12,07,21,58,8.50
2020,12,07,21,59,8.50
2020,12,07,22,00,8.50
2020,12,07,22,01,8.50
2020,12,07,22,02,8.50
2020,12,07,22,03,8.50
2020,12,07,22,04,8.50
2020,12,07,22,05,8.50
2020,12,07,22,06,8.50
2020,12,07,22,07,8.50
2020,12,07,22,08,8.50
2020,12,07,22,09,8.60
2020,12,07,22,10,8.60
2020,12,07,22,11,8.60
2020,12,07,22,12,8.60
2020,12,07,22,13,8.60
2020,12,07,22,14,8.60
2020,12,07,22,15,8.60
2020,12,07,22,16,8.60
2020,12,07,22,17,8.60
2020,12,07,22,18,8.60
2020,12,07,22,19,8.60
2020,12,07,22,20,8.60
2020,12,07,22,21,8.60
2020,12,07,22,22,8.70
2020,12,07,22,23,8.70
2020,12,07,22,24,8.70
2020,12,07,22,25,8.70
2020,12,07,22,26,8.70
2020,12,07,22,27,8.70
2020,12,07,22,28,8.70
2020,12,07,22,29,8.70
2020,12,07,22,30,8.70
2020,12,07,22,31,8.70
2020,12,07,22,32,8.70
2020,12,07,22,33,8.70
2020,12,07,22,34,8.70
2020,12,07,22,35,8.70
2020,12,07,22,36,8.70
2020,12,07,22,37,8.70
2020,12,07,22,38,8.70
2020,12,07,22,39,8.70
2020,12,07,22,40,8.70
2020,12,07,22,41,8.70
2020,12,07,22,42,8.70
2020,12,07,22,43,8.70
2020,12,07,22,44,8.80
2020,12,07,22,45,8.80
2020,12,07,22,46,8.80
2020,12,07,22,47,8.80
2020,12,07,22,48,8.80
2020,12,07,22,49,8.80
2020,12,07,22,50,8.80
2020,12,07,22,51,8.80
2020,12,07,22,52,8.80
2020,12,07,22,53,8.80
2020,12,07,22,54,8.80
2020,12,07,22,55,8.80
2020,12,07,22,56,8.80
2020,12,07,22,57,8.80
2020,12,07,22,58,8.80
2020,12,07,22,59,8.90
2020,12,07,23,00,8.90
2020,12,07,23,01,9.00
2020,12,07,23,02,9.10
2020,12,07,23,03,9.20
2020,12,07,23,04,9.30
2020,12,07,23,05,9.30
2020,12,07,23,06,9.40
2020,12,07,23,07,9.40
2020,12,07,23,08,9.40
2020,12,07,23,09,9.50
2020,12,07,23,10,9.50
2020,12,07,23,11,9.50
2020,12,07,23,12,9.50
2020,12,07,23,13,9.60
2020,12,07,23,14,9.60
2020,12,07,23,15,9.60
2020,12,07,23,16,9.50
2020,12,07,23,17,9.60
2020,12,07,23,18,9.50
2020,12,07,23,19,9.50
2020,12,07,23,20,9.40
2020,12,07,23,21,9.40
2020,12,07,23,22,9.40
2020,12,07,23,23,9.30
2020,12,07,23,24,9.30
2020,12,07,23,25,9.30
2020,12,07,23,26,9.30
2020,12,07,23,27,9.30
2020,12,07,23,28,9.30
2020,12,07,23,29,9.30
2020,12,07,23,30,9.30
2020,12,07,23,31,9.30
2020,12,07,23,32,9.40
2020,12,07,23,33,9.40
2020,12,07,23,34,9.40
2020,12,07,23,35,9.40
2020,12,07,23,36,9.40
2020,12,07,23,37,9.40
2020,12,07,23,38,9.40
2020,12,07,23,39,9.40
2020,12,07,23,40,9.40
2020,12,07,23,41,9.30
2020,12,07,23,42,9.30
2020,12,07,23,43,9.30
2020,12,07,23,44,9.20
2020,12,07,23,45,9.20
2020,12,07,23,46,9.20
2020,12,07,23,47,9.20
2020,12,07,23,48,9.10
2020,12,07,23,49,9.10
2020,12,07,23,50,9.10
2020,12,07,23,51,9.10
2020,12,07,23,52,9.00
2020,12,07,23,53,9.00
2020,12,07,23,54,9.00
2020,12,07,23,55,9.00
2020,12,07,23,56,8.90
2020,12,07,23,57,8.90
2020,12,07,23,58,8.90
2020,12,07,23,59,8.90
